Regional Weather Roundup
Issued by NWS

Home | Current Version | Previous Version | Text Only | Print | Product List | Glossary Off
Versions: 1 2 3 4 5 6 7 8 9 10 11 12 13 14 15 16 17 18 19 20 21 22 23 24 25 26 27 28 29 30 31 32 33 34 35 36 37 38 39 40 41 42 43 44 45 46 47 48 49 50

000
ASUS43 KFSD 231210
RWRSD

WEATHER ROUNDUP FOR SOUTH DAKOTA
NATIONAL WEATHER SERVICE SIOUX FALLS SD
700 AM CDT MON OCT 23 2017

NOTE: "FAIR" INDICATES FEW OR NO CLOUDS BELOW 12,000 FEET WITH NO
SIGNIFICANT WEATHER AND/OR OBSTRUCTIONS TO VISIBILITY.


SDZ001>005-009-010-012>017-231300-
NORTHWEST AND NORTH CENTRAL SOUTH DAKOTA

CITY           SKY/WX    TMP DP  RH WIND       PRES   REMARKS
BUFFALO          N/A     46  28  49 NW26G33   30.08R
MOBRIDGE       CLEAR     50  39  66 NW18G29   29.96R
$$

SDZ012>016-024>037-041>051-057-063-072>074-231300-
SOUTHWEST AND SOUTH CENTRAL SOUTH DAKOTA

CITY           SKY/WX    TMP DP  RH WIND       PRES   REMARKS
RAPID CTY ARPT CLEAR     49  21  33 NW28G41   30.17R
PIERRE         MOCLDY    49  38  65 NW18      30.05R
CUSTER         CLEAR     38  17  42 NW12G31   30.20R
ELLSWORTH AFB  CLEAR     48  21  34 NW28G36   30.16R
PHILIP         CLEAR     50  30  46 NW26G41   30.13R
PINE RIDGE     CLEAR     37  33  85 NW6       30.20R
SPEARFISH      FAIR      45  21  39 W22G35    30.22R
WINNER         FAIR      52  32  46 NW20      30.09R
$$

SDZ004>011-016>023-039-040-231300-
NORTHEAST SOUTH DAKOTA

CITY           SKY/WX    TMP DP  RH WIND       PRES   REMARKS
ABERDEEN       MOCLDY    48  38  68 W14G23    29.90R
WATERTOWN      PTCLDY    48  39  71 W21       29.87R
BROOKINGS      CLOUDY    51  38  60 NW17G24   29.89R
SISSETON         N/A     51  38  60 W26G33    29.81R
$$

SDZ017-020-022-023-036>040-048>070-231300-
SOUTHEAST SOUTH DAKOTA

CITY           SKY/WX    TMP DP  RH WIND       PRES   REMARKS
SIOUX FALLS    CLOUDY    56  40  55 NW22G33   29.92R
HURON          CLEAR     50  37  61 NW24G31   29.94R
CHAMBERLAIN    PTCLDY    52  37  56 W20G31    30.04R
MITCHELL       PTCLDY    54  38  54 NW24G30   29.97R
YANKTON        MOCLDY    56  41  57 NW15      29.97R
$$

ABBREVIATIONS USED IN REMARKS
   TC - TEMPERATURE IN CELSIUS
  WCI - WIND CHILL INDEX
   HX - HEAT INDEX
  VSB - VISIBILITY





USA.gov is the U.S. government's official web portal to all federal, state and local government web resources and services.